NKS9985 TJSJ-KFLL

Flight info

Callsign NKS9985
Flight time N/A
Altitude 38000
Route DCT SAPPO Y399 ZQA OLAHS3
Aircraft A321/M-SDE3FGHIRWXYZ/LB1

Departure

Time N/A
Airport Luis Munoz Marin International Airport (TJSJ)

Arrival

Time 2026-05-06 12:06
Airport Fort Lauderdale Hollywood International Airport (KFLL)
Time Latitude Longitude Altitude Speed Heading
2026-05-06 11:25 24.87146 -77.11351 38089 ft 409 kts 302°
2026-05-06 11:25 24.89740 -77.16939 38097 ft 410 kts 302°
2026-05-06 11:26 24.92332 -77.22535 38107 ft 410 kts 302°
2026-05-06 11:26 24.94925 -77.28124 38101 ft 410 kts 301°
2026-05-06 11:27 24.97522 -77.33740 38106 ft 411 kts 301°
2026-05-06 11:27 25.00110 -77.39349 38113 ft 411 kts 301°
2026-05-06 11:28 25.02693 -77.44966 38116 ft 411 kts 300°
2026-05-06 11:28 25.04997 -77.50718 38120 ft 414 kts 297°
2026-05-06 11:29 25.07113 -77.56629 38117 ft 414 kts 296°
2026-05-06 11:29 25.09244 -77.62539 38101 ft 414 kts 296°
2026-05-06 11:30 25.11432 -77.68418 38099 ft 414 kts 297°
2026-05-06 11:30 25.13643 -77.74285 38115 ft 414 kts 297°
2026-05-06 11:31 25.15834 -77.80156 38103 ft 414 kts 297°
2026-05-06 11:31 25.18015 -77.86028 38100 ft 413 kts 297°
2026-05-06 11:32 25.20198 -77.91901 38096 ft 413 kts 297°
2026-05-06 11:32 25.22381 -77.97765 38090 ft 413 kts 296°
2026-05-06 11:33 25.24560 -78.03637 38093 ft 413 kts 296°
2026-05-06 11:33 25.26715 -78.09476 38092 ft 413 kts 296°
2026-05-06 11:34 25.28886 -78.15351 38094 ft 413 kts 296°
2026-05-06 11:34 25.31080 -78.21220 38096 ft 413 kts 297°
2026-05-06 11:34 25.32234 -78.24141 37528 ft 416 kts 298°
2026-05-06 11:35 25.33401 -78.27032 36250 ft 409 kts 298°
2026-05-06 11:35 25.34573 -78.29911 34637 ft 414 kts 297°
2026-05-06 11:35 25.35760 -78.32822 33856 ft 416 kts 297°
2026-05-06 11:35 25.36946 -78.35744 33290 ft 421 kts 297°
2026-05-06 11:36 25.38149 -78.38722 32347 ft 427 kts 297°
2026-05-06 11:36 25.39361 -78.41742 31764 ft 430 kts 296°
2026-05-06 11:36 25.40562 -78.44754 31163 ft 425 kts 296°
2026-05-06 11:36 25.41743 -78.47739 30663 ft 419 kts 296°
2026-05-06 11:37 25.42869 -78.50655 30399 ft 407 kts 295°
2026-05-06 11:37 25.43959 -78.53518 29860 ft 401 kts 295°
2026-05-06 11:37 25.45036 -78.56351 29232 ft 397 kts 295°
2026-05-06 11:37 25.46106 -78.59157 28614 ft 394 kts 295°
2026-05-06 11:38 25.47166 -78.61936 27992 ft 390 kts 295°
2026-05-06 11:38 25.48219 -78.64694 27386 ft 387 kts 295°
2026-05-06 11:38 25.49260 -78.67418 26644 ft 378 kts 295°
2026-05-06 11:38 25.50276 -78.70076 25488 ft 373 kts 295°
2026-05-06 11:39 25.51273 -78.72683 25005 ft 371 kts 295°
2026-05-06 11:39 25.52278 -78.75312 24501 ft 370 kts 295°
2026-05-06 11:39 25.53286 -78.77939 23980 ft 369 kts 295°
2026-05-06 11:39 25.54287 -78.80554 23449 ft 368 kts 295°
2026-05-06 11:40 25.55279 -78.83155 22915 ft 365 kts 295°
2026-05-06 11:40 25.56265 -78.85741 22412 ft 361 kts 295°
2026-05-06 11:40 25.57236 -78.88288 21927 ft 357 kts 295°
2026-05-06 11:40 25.58196 -78.90811 21427 ft 354 kts 295°
2026-05-06 11:41 25.59147 -78.93310 20914 ft 351 kts 295°
2026-05-06 11:41 25.60093 -78.95795 20403 ft 348 kts 295°
2026-05-06 11:41 25.61030 -78.98265 19874 ft 347 kts 294°
2026-05-06 11:41 25.61962 -79.00725 19353 ft 345 kts 295°
2026-05-06 11:42 25.62893 -79.03178 18805 ft 345 kts 295°
2026-05-06 11:42 25.63822 -79.05623 18248 ft 344 kts 294°
2026-05-06 11:42 25.64744 -79.08068 17597 ft 344 kts 294°
2026-05-06 11:42 25.65658 -79.10505 17050 ft 341 kts 294°
2026-05-06 11:43 25.66563 -79.12921 16515 ft 338 kts 294°
2026-05-06 11:43 25.67461 -79.15318 15970 ft 335 kts 294°
2026-05-06 11:43 25.68352 -79.17694 15434 ft 333 kts 294°
2026-05-06 11:44 25.70118 -79.22417 14365 ft 330 kts 294°
2026-05-06 11:44 25.70996 -79.24762 13825 ft 328 kts 294°
2026-05-06 11:44 25.71872 -79.27095 13252 ft 326 kts 294°
2026-05-06 11:44 25.72739 -79.29407 12722 ft 323 kts 294°
2026-05-06 11:45 25.73584 -79.31676 12208 ft 321 kts 294°
2026-05-06 11:45 25.74425 -79.33960 11687 ft 318 kts 294°
2026-05-06 11:45 25.75255 -79.36227 11174 ft 316 kts 294°
2026-05-06 11:45 25.76078 -79.38484 10666 ft 314 kts 293°
2026-05-06 11:46 25.76893 -79.40724 10221 ft 311 kts 293°
2026-05-06 11:46 25.77676 -79.42873 9921 ft 290 kts 294°
2026-05-06 11:46 25.78430 -79.44936 9404 ft 286 kts 294°
2026-05-06 11:46 25.79173 -79.46964 9284 ft 283 kts 294°
2026-05-06 11:47 25.79914 -79.48984 9157 ft 283 kts 294°
2026-05-06 11:47 25.80656 -79.51009 8821 ft 282 kts 293°
2026-05-06 11:47 25.81390 -79.53019 8419 ft 280 kts 293°
2026-05-06 11:47 25.82120 -79.55022 8004 ft 280 kts 293°
2026-05-06 11:48 25.82849 -79.57020 7586 ft 279 kts 292°
2026-05-06 11:48 25.83577 -79.59010 7181 ft 278 kts 292°
2026-05-06 11:48 25.84306 -79.60996 6767 ft 278 kts 292°
2026-05-06 11:48 25.85049 -79.62976 6343 ft 277 kts 292°
2026-05-06 11:49 25.85798 -79.64935 6044 ft 272 kts 294°
2026-05-06 11:49 25.86589 -79.66847 6011 ft 273 kts 295°
2026-05-06 11:49 25.87414 -79.68747 6015 ft 274 kts 296°
2026-05-06 11:49 25.88249 -79.70646 6015 ft 273 kts 296°
2026-05-06 11:50 25.89081 -79.72539 6018 ft 272 kts 296°
2026-05-06 11:50 25.89908 -79.74435 6019 ft 273 kts 296°
2026-05-06 11:50 25.90726 -79.76333 6018 ft 273 kts 295°
2026-05-06 11:50 25.91544 -79.78243 6018 ft 274 kts 295°
2026-05-06 11:51 25.92364 -79.80159 6017 ft 275 kts 295°
2026-05-06 11:51 25.93184 -79.82079 6018 ft 275 kts 295°
2026-05-06 11:51 25.94002 -79.84000 6018 ft 275 kts 295°
2026-05-06 11:51 25.94818 -79.85920 6021 ft 274 kts 295°
2026-05-06 11:52 25.95631 -79.87839 6019 ft 274 kts 295°
2026-05-06 11:52 25.96432 -79.89733 6023 ft 274 kts 295°
2026-05-06 11:52 25.97241 -79.91646 6021 ft 273 kts 295°
2026-05-06 11:52 25.98051 -79.93555 6016 ft 274 kts 295°
2026-05-06 11:53 25.98969 -79.95416 6017 ft 274 kts 306°
2026-05-06 11:53 26.00208 -79.97025 6017 ft 273 kts 312°
2026-05-06 11:53 26.01488 -79.98591 6023 ft 273 kts 312°
2026-05-06 11:53 26.02762 -80.00157 6010 ft 274 kts 312°
2026-05-06 11:54 26.04037 -80.01729 6008 ft 274 kts 312°
2026-05-06 11:54 26.05312 -80.03303 6009 ft 275 kts 312°
2026-05-06 11:54 26.06589 -80.04883 6010 ft 274 kts 312°
2026-05-06 11:54 26.07863 -80.06460 6008 ft 274 kts 312°
2026-05-06 11:55 26.09133 -80.08034 6010 ft 273 kts 312°
2026-05-06 11:55 26.10401 -80.09605 6014 ft 273 kts 312°
2026-05-06 11:55 26.11674 -80.11180 6009 ft 274 kts 312°
2026-05-06 11:55 26.12948 -80.12758 6008 ft 274 kts 312°
2026-05-06 11:56 26.14096 -80.14412 6019 ft 274 kts 300°
2026-05-06 11:56 26.14823 -80.16371 6019 ft 275 kts 284°
2026-05-06 11:56 26.15045 -80.18482 6019 ft 276 kts 270°
2026-05-06 11:56 26.15044 -80.20624 6017 ft 276 kts 270°
2026-05-06 11:57 26.15049 -80.22748 5694 ft 274 kts 270°
2026-05-06 11:57 26.15056 -80.24862 5294 ft 273 kts 270°
2026-05-06 11:57 26.15065 -80.26286 5028 ft 272 kts 271°
2026-05-06 11:57 26.15087 -80.28367 4631 ft 272 kts 271°
2026-05-06 11:58 26.15103 -80.31172 4100 ft 271 kts 270°
2026-05-06 11:58 26.15109 -80.32556 3850 ft 269 kts 271°
2026-05-06 11:58 26.15119 -80.34641 3474 ft 268 kts 271°
2026-05-06 11:58 26.15126 -80.36710 3106 ft 266 kts 270°
2026-05-06 11:59 26.15125 -80.38736 3011 ft 254 kts 269°
2026-05-06 11:59 26.15019 -80.40628 3016 ft 236 kts 260°
2026-05-06 11:59 26.14344 -80.42210 3016 ft 227 kts 226°
2026-05-06 11:59 26.13023 -80.43111 2951 ft 225 kts 193°
2026-05-06 12:00 26.11477 -80.43361 2827 ft 224 kts 184°
2026-05-06 12:00 26.09924 -80.43476 2682 ft 224 kts 179°
2026-05-06 12:00 26.08458 -80.43033 2479 ft 219 kts 147°
2026-05-06 12:00 26.07341 -80.41910 2285 ft 217 kts 121°
2026-05-06 12:01 26.06647 -80.40423 2104 ft 216 kts 114°
2026-05-06 12:01 26.06256 -80.38826 2018 ft 215 kts 85°
2026-05-06 12:01 26.06642 -80.37219 2025 ft 216 kts 74°
2026-05-06 12:01 26.06751 -80.35560 2027 ft 217 kts 92°
2026-05-06 12:02 26.06698 -80.33942 2022 ft 205 kts 91°
2026-05-06 12:02 26.06677 -80.32425 2036 ft 188 kts 90°
2026-05-06 12:02 26.06668 -80.31011 2025 ft 179 kts 90°
2026-05-06 12:02 26.06661 -80.29638 2048 ft 176 kts 90°
2026-05-06 12:03 26.06654 -80.28277 2028 ft 176 kts 90°
2026-05-06 12:03 26.06647 -80.26968 1907 ft 160 kts 90°
2026-05-06 12:03 26.06641 -80.25744 1712 ft 156 kts 90°
2026-05-06 12:03 26.06635 -80.24564 1522 ft 146 kts 90°
2026-05-06 12:04 26.06630 -80.23476 1342 ft 137 kts 90°
2026-05-06 12:04 26.06624 -80.22429 1168 ft 134 kts 90°
2026-05-06 12:04 26.06619 -80.21398 1000 ft 133 kts 90°
2026-05-06 12:04 26.06613 -80.20394 839 ft 127 kts 90°
2026-05-06 12:05 26.06608 -80.19428 682 ft 124 kts 90°
2026-05-06 12:05 26.06603 -80.18480 523 ft 122 kts 90°
2026-05-06 12:05 26.06594 -80.17538 364 ft 122 kts 92°
2026-05-06 12:05 26.06597 -80.16601 192 ft 120 kts 89°
2026-05-06 12:06 26.06588 -80.15671 48 ft 120 kts 90°
2026-05-06 12:06 26.06583 -80.14856 20 ft 85 kts 90°
2026-05-06 12:06 26.06581 -80.14411 47 ft 19 kts 91°
2026-05-06 12:06 26.06598 -80.14288 55 ft 15 kts 69°
2026-05-06 12:07 26.06672 -80.14260 50 ft 12 kts 304°
2026-05-06 12:07 26.06677 -80.14338 49 ft 12 kts 270°
2026-05-06 12:07 26.06677 -80.14454 45 ft 19 kts 269°
2026-05-06 12:07 26.06675 -80.14626 37 ft 27 kts 270°
2026-05-06 12:08 26.06677 -80.14784 24 ft 21 kts 272°
2026-05-06 12:08 26.06700 -80.14903 18 ft 13 kts 306°
2026-05-06 12:08 26.06772 -80.14950 16 ft 8 kts 308°
2026-05-06 12:08 26.06826 -80.14971 16 ft 10 kts 359°
2026-05-06 12:09 26.06853 -80.14971 16 ft 2 kts 359°